ボリソフ彗星

C/2013 V2 ( Borisov )

English version
Home page
Updated on May 29, 2016

---------------------------------------------------------------------

・ プロフィール

発見日 2013年11月6日
発見光度 16.9等
発見者 G. Borisov (Crimean Laboratory, Sternberg Astronomical Institute)

・ 写真集

・ 軌道要素

Epoch 2014 Oct. 30.0 TT = JDT 2456960.5
T 2014 Oct. 14.36342 TT                                 MPCW
q   3.5079183            (2000.0)            P               Q
z  -0.0012369      Peri.   94.47201     -0.64068019     -0.61548856
 +/-0.0000003      Node    48.42730     +0.18243672     -0.70274590
e   1.0043390      Incl.   37.84839     +0.74581883     -0.35682213
From 1686 observations 2012 Nov. 17-2016 Feb. 11, mean residual 0".4.

・ 星図

・ 光度変化

        m1 = 7.5 + 5 logΔ + 10.0 log r

---------------------------------------------------------------------

軌道要素はM.P.E.C. 2016-D32に掲載されたものです。
星図はステラナビゲータ Ver.8 (アストロアーツ) で作成したものです。
光度グラフはComet for Windowsで作成したものです。

---------------------------------------------------------------------

Copyright(C) Seiichi Yoshida (comet@aerith.net). All rights reserved.